Weather observations for the past three days for
Pago Pago, AS, Samoa
| Date | Time (sst) | Wind (mph) | Vis. (mi.) | Weather | Sky Cond. | Temperature (ºF) | Relative Humidity | Wind Chill (°F) | Heat Index (°F) | Pressure | Precipitation (in) | ||||||
|---|---|---|---|---|---|---|---|---|---|---|---|---|---|---|---|---|---|
| Air | Dwpt | 6 hour | altimeter (in) | sea level (mb) | 1 hr | 3 hr | 6 hr | ||||||||||
| Max. | Min. | ||||||||||||||||
| 03 | 17:50 | Vrbl 2 | 12.00 | Overcast | FEW022 BKN038 OVC100 | 79.3 | 76.3 | 90% | 84 | 29.8 | 1009.1 | ||||||
| 03 | 16:50 | Vrbl 3 | 12.00 | Overcast | FEW010 SCT022 BKN040 OVC100 | 79.9 | 76.3 | 89% | 85 | 29.78 | 1008.6 | ||||||
| 03 | 15:50 | Vrbl 2 | 10.00 | Light Showers Rain | FEW008 SCT018TCU BKN038 OVC100 | 79.2 | 76.1 | 90% | 83 | 29.79 | 1008.8 | 0.08 | |||||
| 03 | 14:50 | Vrbl 3 | 10.00 | Light Showers Rain | FEW007 BKN017TCU BKN040 OVC100 | 79.5 | 76.5 | 90% | 84 | 29.79 | 1008.8 | ||||||
| 03 | 13:50 | Vrbl 5 | 10.00 | Overcast | SCT015TCU BKN100 OVC200 | 81.5 | 77.2 | 87% | 89 | 29.81 | 1009.7 | ||||||
| 03 | 12:50 | Vrbl 3 | 11.00 | Overcast | SCT015TCU BKN100 OVC200 | 80.6 | 76.6 | 84 | 78.3 | 88% | 87 | 29.82 | 1010.0 | 0.44 | |||
| 03 | 10:50 | S 9 | 12.00 | Overcast | SCT018TCU BKN100 OVC200 | 84 | 77.9 | 82% | 95 | 29.86 | 1011.3 | ||||||
| 03 | 09:55 | Vrbl 1 | 12.00 | Overcast | FEW019 BKN100 OVC200 | 82.9 | 78.6 | 87% | 93 | 29.87 | 1011.5 | ||||||
| 03 | 08:50 | Calm | 12.00 | Overcast | FEW017 BKN100 OVC200 | 79.7 | 77.4 | 93% | 85 | 29.84 | 1010.7 | ||||||
| 03 | 07:50 | Vrbl 2 | 12.00 | Overcast | FEW018 BKN100 OVC200 | 79 | 77 | 94% | 83 | 29.83 | 1010.3 | ||||||
| 03 | 06:50 | Calm | 12.00 | Mostly Cloudy | FEW018 SCT100 BKN200 | 78.3 | 76.5 | 80.2 | 77 | 94% | 81 | 29.81 | 1009.5 | ||||
| 03 | 05:50 | Vrbl 2 | 10.00 | Mostly Cloudy | SCT016TCU BKN090 BKN200 | 77.4 | 75.6 | 94% | 79 | 29.79 | 1009.0 | ||||||
| 03 | 04:50 | Vrbl 1 | 10.00 | Overcast | SCT016TCU BKN090 OVC200 | 77 | 75 | 94% | 78 | 29.77 | 1008.3 | ||||||
| 03 | 03:50 | Vrbl 1 | 10.00 | Overcast | BKN016TCU BKN090 OVC200 | 77 | 75.2 | 94% | 78 | 29.78 | 1008.5 | 0.08 | |||||
| 03 | 02:55 | Vrbl 2 | 8.00 | Light Showers Rain | BKN016TCU BKN090 OVC200 | 78.4 | 75.2 | 90% | 82 | 29.79 | 1008.8 | ||||||
| 03 | 01:50 | Vrbl 7 | 10.00 | Mostly Cloudy | SCT019TCU BKN100 BKN200 | 80.2 | 75.4 | 85% | 86 | 29.79 | 1008.8 | ||||||
| 03 | 00:55 | Vrbl 1 | 10.00 | Mostly Cloudy | FEW021 SCT040 BKN100 BKN200 | 79.9 | 76.3 | 81.3 | 79.9 | 89% | 85 | 29.79 | 1009.3 | ||||
| 02 | 16:51 | Vrbl 5 | 12.00 | Partly Cloudy | FEW020TCU FEW040 SCT100 SCT220 | 84.6 | 76.1 | 76% | 94 | 29.74 | 1007.1 | ||||||
| 02 | 15:50 | E 7 | 12.00 | Mostly Cloudy | SCT020TCU SCT100 BKN220 | 86 | 77.2 | 75% | 97 | 29.74 | 1007.1 | ||||||
| 02 | 14:50 | Vrbl 7 | 12.00 | Mostly Cloudy | FEW020 SCT040 BKN100 | 87.3 | 76.3 | 70% | 98 | 29.74 | 1007.3 | ||||||
| 02 | 13:50 | Vrbl 7 | 12.00 | Mostly Cloudy | SCT019TCU SCT040 BKN100 | 85.1 | 76.8 | 76% | 95 | 29.77 | 1008.1 | ||||||
| 02 | 12:50 | E 1 G 17 | 12.00 | Mostly Cloudy | SCT019TCU BKN040 BKN100 | 84.2 | 77 | 88 | 79 | 79% | 94 | 29.79 | 1009.0 | ||||
| 02 | 11:50 | Vrbl 7 | 12.00 | Partly Cloudy | FEW019 SCT040 | 86 | 78.3 | 78% | 99 | 29.81 | 1009.7 | ||||||
| 02 | 10:50 | Vrbl 6 | 12.00 | Partly Cloudy | FEW019 SCT040 | 88 | 78.4 | 73% | 102 | 29.83 | 1010.2 | ||||||
| 02 | 09:50 | Vrbl 7 | 12.00 | Partly Cloudy | SCT019 | 87.4 | 77.9 | 73% | 101 | 29.84 | 1010.5 | ||||||
| 02 | 08:50 | Vrbl 6 | 12.00 | A Few Clouds | FEW016TCU | 84.7 | 78.6 | 82% | 97 | 29.83 | 1010.2 | ||||||
| 02 | 07:50 | Vrbl 1 | 12.00 | Mostly Cloudy | SCT016TCU BKN040 | 81.3 | 78.3 | 90% | 90 | 29.83 | 1010.2 | ||||||
| 02 | 06:50 | Vrbl 2 | 12.00 | Partly Cloudy | SCT019 | 79 | 77 | 79 | 77.4 | 94% | 83 | 29.81 | 1009.5 | ||||
| 02 | 05:50 | Vrbl 1 | 11.00 | Partly Cloudy | FEW022 SCT040 | 78.3 | 76.5 | 94% | 81 | 29.79 | 1008.8 | ||||||
| 02 | 04:50 | Vrbl 2 | 10.00 | Partly Cloudy | FEW020 SCT040 SCT100 | 78.3 | 76.5 | 94% | 81 | 29.78 | 1008.5 | ||||||
| 02 | 03:50 | Vrbl 3 | 10.00 | Partly Cloudy | SCT022 SCT040 | 77.5 | 75.2 | 93% | 79 | 29.78 | 1008.6 | ||||||
| 02 | 02:50 | Vrbl 2 | 10.00 | Partly Cloudy | FEW022 SCT100 | 77.4 | 75.2 | 93% | 79 | 29.79 | 1008.8 | ||||||
| 02 | 01:50 | Vrbl 1 | 10.00 | Partly Cloudy | FEW021 SCT100 | 77.7 | 75.6 | 93% | 80 | 29.8 | 1009.1 | ||||||
| 02 | 00:50 | Vrbl 2 | 10.00 | A Few Clouds | FEW021 FEW100 | 78.1 | 75.7 | 80.4 | 78.1 | 93% | 81 | 29.82 | 1009.8 | ||||
| 01 | 23:50 | Vrbl 2 | 10.00 | A Few Clouds | FEW021 FEW100 | 78.3 | 75.7 | 92% | 81 | 29.83 | 1010.2 | ||||||
| 01 | 22:50 | Vrbl 1 | 10.00 | Mostly Cloudy | FEW021 SCT100 BKN200 | 78.8 | 76.1 | 91% | 83 | 29.83 | 1010.2 | ||||||
| 01 | 21:50 | Vrbl 1 | 10.00 | Mostly Cloudy | FEW021 SCT100 BKN200 | 79 | 75.9 | 90% | 83 | 29.83 | 1010.2 | ||||||
| 01 | 20:50 | Vrbl 1 | 10.00 | Partly Cloudy | FEW021TCU SCT100 SCT200 | 79 | 75.9 | 90% | 83 | 29.83 | 1010.2 | ||||||
| 01 | 19:51 | Vrbl 1 | 10.00 | Mostly Cloudy | FEW021TCU BKN100 BKN200 | 79.9 | 76.6 | 90% | 85 | 29.81 | 1009.7 | ||||||
| 01 | 18:52 | Vrbl 3 | 10.00 | Mostly Cloudy | FEW022 SCT100 BKN200 | 80.4 | 77.4 | 87.3 | 80.4 | 90% | 87 | 29.79 | 1008.8 | ||||
| 01 | 17:50 | Vrbl 2 | 12.00 | Mostly Cloudy | FEW022 SCT100 BKN200 | 83.1 | 77.5 | 83% | 93 | 29.78 | 1008.5 | ||||||
| 01 | 16:51 | Vrbl 2 | 12.00 | Mostly Cloudy | SCT020TCU SCT100 BKN200 | 83.1 | 76.8 | 81% | 92 | 29.77 | 1008.1 | ||||||
| 01 | 15:51 | Vrbl 6 | 12.00 | Light Showers Rain | FEW011 SCT019TCU BKN030 BKN100 OVC200 | 82.6 | 76.6 | 82% | 91 | 29.76 | 1008.0 | ||||||
| 01 | 14:50 | Vrbl 6 | 12.00 | Mostly Cloudy | SCT018TCU BKN100 BKN200 | 85.5 | 77.4 | 77% | 97 | 29.77 | 1008.1 | ||||||
| 01 | 13:50 | Vrbl 3 | 12.00 | Mostly Cloudy | FEW021 BKN100 BKN200 | 87.3 | 76.8 | 71% | 99 | 29.78 | 1008.6 | ||||||
| 01 | 12:50 | Vrbl 3 | 12.00 | Mostly Cloudy | SCT021 BKN100 BKN220 | 84.7 | 76.6 | 88.3 | 78.6 | 77% | 95 | 29.81 | 1009.5 | ||||
| 01 | 11:50 | E 8 | 12.00 | Mostly Cloudy | SCT018TCU BKN100 BKN200 | 88.3 | 79.9 | 76% | 105 | 29.83 | 1010.2 | ||||||
| 01 | 10:50 | E 9 | 12.00 | Mostly Cloudy | SCT018TCU SCT040 BKN100 BKN220 | 87.3 | 79.3 | 77% | 102 | 29.84 | 1010.7 | ||||||
| 01 | 09:50 | Vrbl 6 | 12.00 | Mostly Cloudy | SCT020 SCT040 BKN100 BKN220 | 87.3 | 79 | 76% | 102 | 29.85 | 1010.8 | ||||||
| 01 | 08:50 | Vrbl 3 | 12.00 | Partly Cloudy | FEW021 SCT120 SCT220 | 86.5 | 78.8 | 78% | 100 | 29.85 | 1010.8 | ||||||
| 01 | 07:50 | Vrbl 5 | 12.00 | Partly Cloudy | FEW020 FEW120 SCT220 | 83.7 | 78.8 | 85% | 95 | 29.83 | 1010.2 | ||||||
| 01 | 06:50 | Vrbl 2 | 12.00 | Mostly Cloudy | FEW017TCU SCT100 BKN220 | 78.6 | 76.5 | 79.3 | 78.1 | 93% | 82 | 29.82 | 1010.0 | ||||
| 01 | 04:50 | Vrbl 2 | 10.00 | Mostly Cloudy | SCT018 BKN040 BKN100 | 78.1 | 76.5 | 95% | 81 | 29.78 | 1008.6 | ||||||
| 01 | 03:50 | Vrbl 2 | 10.00 | Mostly Cloudy | SCT018TCU BKN040 BKN100 | 78.3 | 76.5 | 94% | 81 | 29.78 | 1008.6 | ||||||
| 01 | 02:50 | Vrbl 1 | 10.00 | Mostly Cloudy | SCT019TCU BKN100 | 79 | 76.5 | 92% | 83 | 29.78 | 1008.6 | ||||||
| 01 | 01:50 | Vrbl 1 | 10.00 | Mostly Cloudy | SCT019TCU BKN100 | 79.3 | 77 | 93% | 84 | 29.8 | 1009.1 | ||||||
| 01 | 00:50 | Vrbl 5 | 10.00 | Mostly Cloudy | SCT019TCU BKN040 | 79 | 76.6 | 84 | 79 | 93% | 83 | 29.82 | 1009.8 | 0.15 | |||
| 30 | 23:50 | E 13 G 20 | 10.00 | Mostly Cloudy | SCT019TCU BKN040 | 81 | 77.2 | 88% | 88 | 29.84 | 1010.7 | ||||||
| 30 | 22:55 | NE 8 | 10.00 | Partly Cloudy | SCT019TCU | 81.5 | 77.4 | 87% | 89 | 29.85 | 1010.8 | ||||||
| 30 | 21:50 | Vrbl 2 | 10.00 | Partly Cloudy | SCT022 | 82.4 | 78.1 | 87% | 92 | 29.84 | 1010.5 | 0.15 | |||||
| 30 | 20:50 | Vrbl 5 | 10.00 | Partly Cloudy | SCT023 | 83.5 | 77.5 | 82% | 93 | 29.83 | 1010.3 | ||||||
| 30 | 19:50 | Vrbl 5 | 10.00 | Partly Cloudy | SCT023 | 84 | 77.4 | 80% | 94 | 29.82 | 1010.0 | ||||||
| 30 | 18:50 | E 8 | 10.00 | Partly Cloudy | SCT019 | 84 | 77.2 | 88.7 | 84 | 80% | 94 | 29.8 | 1009.3 | ||||
| Date | Time (sst) | Wind (mph) | Vis. (mi.) | Weather | Sky Cond. | Air | Dwpt | Max. | Min. | Relative Humidity | Wind Chill (°F) | Heat Index (°F) | altimeter (in) | sea level (mb) | 1 hr | 3 hr | 6 hr |
| 6 hour | |||||||||||||||||
| Temperature (ºF) | Pressure | Precipitation (in) | |||||||||||||||